SWA6132 KSTL-KDAL

Flight info

Callsign SWA6132
Flight time 1h 28m
Altitude 36000
Route JAHNY6 MAP FSM CAMAL HIBIL3
Aircraft B737/M-SDE2E3GIJ4RWZ/LB1D1

Departure

Time 2026-04-29 15:01
Airport St. Louis Lambert International Airport (KSTL)

Arrival

Time 2026-04-29 16:29
Airport Dallas Love Field (KDAL)
Time Latitude Longitude Altitude Speed Heading
2026-04-29 14:51 38.74110 -90.35918 571 ft 0 kts 243°
2026-04-29 14:57 38.74110 -90.35917 571 ft 0 kts 239°
2026-04-29 14:57 38.74110 -90.35916 571 ft 0 kts 233°
2026-04-29 14:57 38.74111 -90.35914 571 ft 0 kts 226°
2026-04-29 14:57 38.74111 -90.35913 575 ft 0 kts 220°
2026-04-29 14:58 38.74112 -90.35913 575 ft 0 kts 216°
2026-04-29 14:58 38.74101 -90.35914 571 ft 7 kts 179°
2026-04-29 14:58 38.74081 -90.35873 575 ft 6 kts 101°
2026-04-29 14:58 38.74089 -90.35768 572 ft 17 kts 76°
2026-04-29 14:59 38.74043 -90.35607 573 ft 22 kts 125°
2026-04-29 14:59 38.73958 -90.35437 577 ft 24 kts 122°
2026-04-29 14:59 38.73867 -90.35249 583 ft 24 kts 121°
2026-04-29 14:59 38.73798 -90.35103 588 ft 16 kts 109°
2026-04-29 15:00 38.73829 -90.35041 590 ft 10 kts 34°
2026-04-29 15:00 38.73905 -90.34984 589 ft 15 kts 13°
2026-04-29 15:00 38.74012 -90.35130 584 ft 59 kts 302°
2026-04-29 15:00 38.74448 -90.36009 576 ft 170 kts 303°
2026-04-29 15:01 38.75236 -90.37570 879 ft 246 kts 303°
2026-04-29 15:01 38.76129 -90.39550 1172 ft 249 kts 292°
2026-04-29 15:01 38.76446 -90.41632 1636 ft 241 kts 270°
2026-04-29 15:01 38.75911 -90.43756 1961 ft 258 kts 240°
2026-04-29 15:02 38.74645 -90.45378 2425 ft 261 kts 214°
2026-04-29 15:02 38.72938 -90.46281 3014 ft 270 kts 201°
2026-04-29 15:02 38.71130 -90.46982 3679 ft 271 kts 197°
2026-04-29 15:02 38.69310 -90.47578 4265 ft 276 kts 204°
2026-04-29 15:03 38.67708 -90.48865 4689 ft 269 kts 223°
2026-04-29 15:03 38.66259 -90.50390 5274 ft 273 kts 223°
2026-04-29 15:03 38.64795 -90.51933 5867 ft 272 kts 224°
2026-04-29 15:03 38.63349 -90.53509 6435 ft 273 kts 226°
2026-04-29 15:04 38.61917 -90.55105 6958 ft 273 kts 227°
2026-04-29 15:04 38.60498 -90.56722 7475 ft 273 kts 227°
2026-04-29 15:04 38.59092 -90.58344 7997 ft 273 kts 228°
2026-04-29 15:04 38.57691 -90.59987 8532 ft 273 kts 228°
2026-04-29 15:05 38.56293 -90.61632 9074 ft 273 kts 229°
2026-04-29 15:05 38.54912 -90.63304 9627 ft 274 kts 229°
2026-04-29 15:05 38.53523 -90.64980 10164 ft 275 kts 229°
2026-04-29 15:05 38.52109 -90.66672 10673 ft 283 kts 230°
2026-04-29 15:06 38.50660 -90.68438 11206 ft 293 kts 231°
2026-04-29 15:06 38.49155 -90.70263 11646 ft 304 kts 230°
2026-04-29 15:06 38.47610 -90.72122 12044 ft 313 kts 230°
2026-04-29 15:06 38.46016 -90.74059 12422 ft 319 kts 231°
2026-04-29 15:07 38.44417 -90.76027 12797 ft 320 kts 232°
2026-04-29 15:07 38.42805 -90.77993 13187 ft 321 kts 231°
2026-04-29 15:07 38.41179 -90.79951 13561 ft 322 kts 231°
2026-04-29 15:07 38.39555 -90.81909 13927 ft 321 kts 232°
2026-04-29 15:08 38.37942 -90.83887 14274 ft 322 kts 232°
2026-04-29 15:08 38.36323 -90.85875 14626 ft 323 kts 232°
2026-04-29 15:08 38.34704 -90.87866 14997 ft 324 kts 232°
2026-04-29 15:08 38.33085 -90.89867 15349 ft 324 kts 232°
2026-04-29 15:09 38.31463 -90.91870 15698 ft 326 kts 232°
2026-04-29 15:09 38.29834 -90.93880 16036 ft 326 kts 232°
2026-04-29 15:09 38.28204 -90.95891 16390 ft 328 kts 232°
2026-04-29 15:09 38.26544 -90.97881 16726 ft 328 kts 231°
2026-04-29 15:10 38.24871 -90.99878 17067 ft 329 kts 231°
2026-04-29 15:10 38.23201 -91.01876 17399 ft 331 kts 231°
2026-04-29 15:10 38.21526 -91.03881 17724 ft 331 kts 231°
2026-04-29 15:10 38.19844 -91.05896 18050 ft 332 kts 231°
2026-04-29 15:11 38.18164 -91.07909 18372 ft 332 kts 231°
2026-04-29 15:11 38.16478 -91.09932 18666 ft 334 kts 232°
2026-04-29 15:11 38.14793 -91.11959 18968 ft 335 kts 232°
2026-04-29 15:11 38.13120 -91.13974 19277 ft 336 kts 232°
2026-04-29 15:12 38.11413 -91.16018 19580 ft 337 kts 232°
2026-04-29 15:12 38.10267 -91.17411 19790 ft 337 kts 232°
2026-04-29 15:12 38.08050 -91.20173 20189 ft 338 kts 233°
2026-04-29 15:12 38.06369 -91.22275 20486 ft 340 kts 233°
2026-04-29 15:13 38.04661 -91.24357 20777 ft 340 kts 232°
2026-04-29 15:13 38.02928 -91.26423 21078 ft 343 kts 232°
2026-04-29 15:13 38.01185 -91.28501 21372 ft 343 kts 232°
2026-04-29 15:13 37.99440 -91.30582 21665 ft 345 kts 232°
2026-04-29 15:14 37.97687 -91.32666 21953 ft 346 kts 232°
2026-04-29 15:14 37.95929 -91.34757 22235 ft 347 kts 232°
2026-04-29 15:14 37.94189 -91.36826 22518 ft 348 kts 232°
2026-04-29 15:14 37.92419 -91.38932 22804 ft 349 kts 232°
2026-04-29 15:15 37.90672 -91.41073 23095 ft 350 kts 233°
2026-04-29 15:15 37.88925 -91.43228 23388 ft 351 kts 233°
2026-04-29 15:15 37.87762 -91.44657 23570 ft 352 kts 233°
2026-04-29 15:15 37.85383 -91.47534 23899 ft 354 kts 232°
2026-04-29 15:16 37.84190 -91.48940 24068 ft 354 kts 232°
2026-04-29 15:16 37.82385 -91.51063 24348 ft 354 kts 232°
2026-04-29 15:16 37.80573 -91.53197 24613 ft 356 kts 232°
2026-04-29 15:16 37.78755 -91.55332 24888 ft 357 kts 232°
2026-04-29 15:17 37.76952 -91.57488 25154 ft 357 kts 233°
2026-04-29 15:17 37.75164 -91.59669 25426 ft 357 kts 233°
2026-04-29 15:17 37.73371 -91.61856 25689 ft 358 kts 233°
2026-04-29 15:17 37.71578 -91.64039 25951 ft 359 kts 233°
2026-04-29 15:18 37.69750 -91.66205 26215 ft 361 kts 232°
2026-04-29 15:18 37.67904 -91.68361 26474 ft 362 kts 232°
2026-04-29 15:18 37.66056 -91.70517 26731 ft 362 kts 232°
2026-04-29 15:18 37.64223 -91.72659 26979 ft 363 kts 232°
2026-04-29 15:19 37.62374 -91.74833 27233 ft 364 kts 233°
2026-04-29 15:19 37.60548 -91.77047 27489 ft 365 kts 233°
2026-04-29 15:19 37.58720 -91.79276 27744 ft 366 kts 233°
2026-04-29 15:19 37.56863 -91.81484 27998 ft 368 kts 232°
2026-04-29 15:20 37.54981 -91.83689 28244 ft 369 kts 232°
2026-04-29 15:20 37.53100 -91.85895 28486 ft 370 kts 232°
2026-04-29 15:20 37.51217 -91.88108 28734 ft 371 kts 232°
2026-04-29 15:20 37.49327 -91.90332 28977 ft 372 kts 232°
2026-04-29 15:21 37.47435 -91.92561 29217 ft 373 kts 232°
2026-04-29 15:21 37.45541 -91.94797 29463 ft 374 kts 232°
2026-04-29 15:21 37.43640 -91.97039 29712 ft 376 kts 232°
2026-04-29 15:21 37.41732 -91.99228 29950 ft 378 kts 231°
2026-04-29 15:22 37.39777 -92.01454 30200 ft 379 kts 231°
2026-04-29 15:22 37.37816 -92.03691 30412 ft 380 kts 231°
2026-04-29 15:22 37.35854 -92.05927 30628 ft 381 kts 231°
2026-04-29 15:22 37.33893 -92.08176 30867 ft 381 kts 232°
2026-04-29 15:23 37.31955 -92.10456 31098 ft 383 kts 232°
2026-04-29 15:23 37.30006 -92.12752 31332 ft 385 kts 232°
2026-04-29 15:23 37.28044 -92.15051 31559 ft 386 kts 232°
2026-04-29 15:23 37.26068 -92.17348 31791 ft 388 kts 232°
2026-04-29 15:24 37.24082 -92.19649 32015 ft 389 kts 232°
2026-04-29 15:24 37.22087 -92.21951 32237 ft 391 kts 232°
2026-04-29 15:24 37.20097 -92.24237 32473 ft 393 kts 232°
2026-04-29 15:24 37.18073 -92.26547 32695 ft 394 kts 232°
2026-04-29 15:25 37.16048 -92.28858 32924 ft 394 kts 233°
2026-04-29 15:25 37.14041 -92.31203 33157 ft 395 kts 233°
2026-04-29 15:25 37.12030 -92.33560 33373 ft 397 kts 233°
2026-04-29 15:25 37.10007 -92.35922 33593 ft 398 kts 234°
2026-04-29 15:26 37.07974 -92.38284 33810 ft 399 kts 233°
2026-04-29 15:26 37.05930 -92.40640 34027 ft 399 kts 234°
2026-04-29 15:26 37.03883 -92.42991 34236 ft 399 kts 234°
2026-04-29 15:26 37.01832 -92.45333 34442 ft 399 kts 233°
2026-04-29 15:27 36.99779 -92.47665 34657 ft 398 kts 233°
2026-04-29 15:27 36.97732 -92.49990 34860 ft 397 kts 234°
2026-04-29 15:27 36.95683 -92.52309 35081 ft 397 kts 233°
2026-04-29 15:27 36.93637 -92.54619 35291 ft 396 kts 234°
2026-04-29 15:28 36.91602 -92.56939 35498 ft 395 kts 234°
2026-04-29 15:28 36.90274 -92.58489 35636 ft 394 kts 234°
2026-04-29 15:28 36.87604 -92.61624 35908 ft 393 kts 235°
2026-04-29 15:28 36.85608 -92.63968 36081 ft 393 kts 235°
2026-04-29 15:29 36.83610 -92.66266 36124 ft 398 kts 234°
2026-04-29 15:30 36.75301 -92.75659 36122 ft 406 kts 234°
2026-04-29 15:30 36.71113 -92.80397 36120 ft 407 kts 234°
2026-04-29 15:31 36.66924 -92.85153 36131 ft 408 kts 234°
2026-04-29 15:31 36.62729 -92.89920 36137 ft 408 kts 234°
2026-04-29 15:32 36.58528 -92.94681 36151 ft 409 kts 234°
2026-04-29 15:32 36.54331 -92.99445 36161 ft 408 kts 234°
2026-04-29 15:32 36.52226 -93.01836 36025 ft 411 kts 234°
2026-04-29 15:33 36.50150 -93.04204 36009 ft 411 kts 234°
2026-04-29 15:33 36.45944 -93.09007 36007 ft 410 kts 234°
2026-04-29 15:34 36.41732 -93.13788 36005 ft 411 kts 233°
2026-04-29 15:34 36.37447 -93.18495 35982 ft 411 kts 233°
2026-04-29 15:35 36.33170 -93.23195 35984 ft 411 kts 233°
2026-04-29 15:35 36.28925 -93.27918 35981 ft 409 kts 234°
2026-04-29 15:36 36.24747 -93.32713 35979 ft 409 kts 234°
2026-04-29 15:36 36.20501 -93.37438 35975 ft 411 kts 233°
2026-04-29 15:37 36.16267 -93.42113 35965 ft 410 kts 233°
2026-04-29 15:37 36.11993 -93.46859 35948 ft 410 kts 233°
2026-04-29 15:38 36.07774 -93.51550 35950 ft 410 kts 233°
2026-04-29 15:38 36.03537 -93.56272 35941 ft 410 kts 233°
2026-04-29 15:39 35.99303 -93.60991 35941 ft 410 kts 233°
2026-04-29 15:39 35.95072 -93.65710 35940 ft 410 kts 233°
2026-04-29 15:40 35.90853 -93.70439 35936 ft 410 kts 233°
2026-04-29 15:40 35.86563 -93.75093 35929 ft 411 kts 233°
2026-04-29 15:41 35.82268 -93.79737 35924 ft 410 kts 233°
2026-04-29 15:41 35.78059 -93.84458 35932 ft 410 kts 233°
2026-04-29 15:42 35.73793 -93.89116 35930 ft 411 kts 232°
2026-04-29 15:42 35.69523 -93.93750 35924 ft 412 kts 233°
2026-04-29 15:43 35.65225 -93.98435 35925 ft 413 kts 233°
2026-04-29 15:43 35.60923 -94.03116 35922 ft 413 kts 233°
2026-04-29 15:44 35.56627 -94.07783 35926 ft 412 kts 233°
2026-04-29 15:44 35.52346 -94.12450 35929 ft 412 kts 233°
2026-04-29 15:45 35.48064 -94.17129 35940 ft 412 kts 233°
2026-04-29 15:45 35.43784 -94.21797 35946 ft 412 kts 233°
2026-04-29 15:46 35.39533 -94.26448 35955 ft 412 kts 233°
2026-04-29 15:46 35.34869 -94.30726 35956 ft 425 kts 225°
2026-04-29 15:47 35.29877 -94.34657 35956 ft 426 kts 225°
2026-04-29 15:47 35.24891 -94.38597 35955 ft 426 kts 225°
2026-04-29 15:48 35.19912 -94.42554 35949 ft 427 kts 225°
2026-04-29 15:48 35.14929 -94.46534 35954 ft 428 kts 225°
2026-04-29 15:49 35.09951 -94.50524 35956 ft 428 kts 225°
2026-04-29 15:49 35.04999 -94.54512 35969 ft 429 kts 225°
2026-04-29 15:50 35.00026 -94.58527 35966 ft 429 kts 225°
2026-04-29 15:50 34.95047 -94.62560 35967 ft 430 kts 225°
2026-04-29 15:51 34.90062 -94.66597 35962 ft 430 kts 225°
2026-04-29 15:51 34.85023 -94.70587 35950 ft 432 kts 224°
2026-04-29 15:52 34.79951 -94.74539 35937 ft 432 kts 224°
2026-04-29 15:52 34.74946 -94.78510 35435 ft 430 kts 225°
2026-04-29 15:52 34.72505 -94.80503 35013 ft 425 kts 225°
2026-04-29 15:53 34.70050 -94.82470 34593 ft 420 kts 224°
2026-04-29 15:53 34.67649 -94.84449 34194 ft 415 kts 226°
2026-04-29 15:53 34.65302 -94.86477 33749 ft 412 kts 226°
2026-04-29 15:53 34.62979 -94.88502 33296 ft 410 kts 225°
2026-04-29 15:54 34.60657 -94.90496 32851 ft 407 kts 225°
2026-04-29 15:54 34.58351 -94.92489 32419 ft 405 kts 225°
2026-04-29 15:54 34.56054 -94.94459 31985 ft 404 kts 224°
2026-04-29 15:54 34.53761 -94.96416 31552 ft 402 kts 224°
2026-04-29 15:55 34.51479 -94.98367 31137 ft 400 kts 223°
2026-04-29 15:55 34.49199 -95.00288 30729 ft 398 kts 223°
2026-04-29 15:55 34.46959 -95.02192 30330 ft 396 kts 223°
2026-04-29 15:55 34.44704 -95.04096 29888 ft 395 kts 222°
2026-04-29 15:56 34.42446 -95.05985 29421 ft 392 kts 222°
2026-04-29 15:56 34.40217 -95.07861 28960 ft 388 kts 222°
2026-04-29 15:56 34.38013 -95.09725 28506 ft 385 kts 222°
2026-04-29 15:56 34.35826 -95.11577 28059 ft 383 kts 222°
2026-04-29 15:57 34.33654 -95.13420 27620 ft 379 kts 222°
2026-04-29 15:57 34.31505 -95.15257 27178 ft 377 kts 222°
2026-04-29 15:57 34.29369 -95.17077 26759 ft 375 kts 221°
2026-04-29 15:57 34.27223 -95.18863 26341 ft 373 kts 221°
2026-04-29 15:58 34.25094 -95.20636 25930 ft 369 kts 221°
2026-04-29 15:58 34.22991 -95.22404 25518 ft 367 kts 221°
2026-04-29 15:58 34.20933 -95.24145 25127 ft 365 kts 221°
2026-04-29 15:58 34.18864 -95.25904 24736 ft 362 kts 221°
2026-04-29 15:59 34.16798 -95.27652 24347 ft 361 kts 220°
2026-04-29 15:59 34.14740 -95.29364 23965 ft 358 kts 220°
2026-04-29 15:59 34.12697 -95.31071 23578 ft 356 kts 220°
2026-04-29 15:59 34.10669 -95.32782 23122 ft 354 kts 220°
2026-04-29 16:00 34.08648 -95.34493 22673 ft 354 kts 220°
2026-04-29 16:00 34.06654 -95.36176 22235 ft 353 kts 220°
2026-04-29 16:00 34.04643 -95.37871 21798 ft 352 kts 221°
2026-04-29 16:00 34.02635 -95.39567 21368 ft 351 kts 221°
2026-04-29 16:01 34.00641 -95.41245 20954 ft 349 kts 220°
2026-04-29 16:01 33.98650 -95.42916 20535 ft 348 kts 220°
2026-04-29 16:01 33.96648 -95.44559 20118 ft 348 kts 220°
2026-04-29 16:01 33.94638 -95.46181 19710 ft 347 kts 220°
2026-04-29 16:02 33.92626 -95.47803 19311 ft 346 kts 220°
2026-04-29 16:02 33.90645 -95.49445 18912 ft 345 kts 221°
2026-04-29 16:02 33.88682 -95.51096 18524 ft 344 kts 221°
2026-04-29 16:02 33.86746 -95.52719 18105 ft 343 kts 221°
2026-04-29 16:03 33.84791 -95.54359 17657 ft 341 kts 220°
2026-04-29 16:03 33.82851 -95.55992 17215 ft 340 kts 220°
2026-04-29 16:03 33.80910 -95.57607 16778 ft 339 kts 220°
2026-04-29 16:03 33.78970 -95.59194 16346 ft 336 kts 220°
2026-04-29 16:04 33.77044 -95.60776 15923 ft 334 kts 220°
2026-04-29 16:04 33.75138 -95.62349 15508 ft 331 kts 220°
2026-04-29 16:04 33.73242 -95.63912 15094 ft 329 kts 220°
2026-04-29 16:04 33.71358 -95.65469 14699 ft 328 kts 220°
2026-04-29 16:05 33.70117 -95.66499 14433 ft 327 kts 220°
2026-04-29 16:05 33.68254 -95.68051 14064 ft 325 kts 220°
2026-04-29 16:05 33.66405 -95.69589 13727 ft 322 kts 220°
2026-04-29 16:05 33.64569 -95.71113 13371 ft 320 kts 220°
2026-04-29 16:06 33.62740 -95.72638 13009 ft 320 kts 220°
2026-04-29 16:06 33.60921 -95.74166 12657 ft 319 kts 220°
2026-04-29 16:06 33.59097 -95.75683 12306 ft 319 kts 219°
2026-04-29 16:06 33.57263 -95.77173 11962 ft 318 kts 219°
2026-04-29 16:07 33.55441 -95.78663 11619 ft 316 kts 219°
2026-04-29 16:07 33.53626 -95.80156 11280 ft 315 kts 219°
2026-04-29 16:07 33.51829 -95.81637 10945 ft 313 kts 219°
2026-04-29 16:07 33.50042 -95.83114 10611 ft 311 kts 219°
2026-04-29 16:08 33.48267 -95.84581 10283 ft 309 kts 219°
2026-04-29 16:08 33.46502 -95.86048 9956 ft 309 kts 219°
2026-04-29 16:08 33.44741 -95.87516 9599 ft 308 kts 218°
2026-04-29 16:08 33.42994 -95.88935 9249 ft 307 kts 218°
2026-04-29 16:09 33.41232 -95.90372 8896 ft 306 kts 218°
2026-04-29 16:09 33.39483 -95.91811 8548 ft 304 kts 218°
2026-04-29 16:09 33.37747 -95.93252 8204 ft 303 kts 218°
2026-04-29 16:09 33.36022 -95.94683 7861 ft 298 kts 217°
2026-04-29 16:10 33.34363 -95.96022 7518 ft 278 kts 217°
2026-04-29 16:10 33.32800 -95.97284 7171 ft 264 kts 217°
2026-04-29 16:10 33.31315 -95.98489 6824 ft 252 kts 217°
2026-04-29 16:10 33.29890 -95.99648 6482 ft 243 kts 217°
2026-04-29 16:11 33.28528 -96.00765 6215 ft 231 kts 217°
2026-04-29 16:11 33.27233 -96.01821 6192 ft 221 kts 217°
2026-04-29 16:11 33.25961 -96.02857 6225 ft 224 kts 217°
2026-04-29 16:11 33.24644 -96.03934 6229 ft 231 kts 217°
2026-04-29 16:12 33.23327 -96.05018 6204 ft 229 kts 217°
2026-04-29 16:12 33.22016 -96.06090 6211 ft 229 kts 217°
2026-04-29 16:12 33.20690 -96.07171 6215 ft 231 kts 217°
2026-04-29 16:12 33.19380 -96.08238 6207 ft 230 kts 217°
2026-04-29 16:13 33.18061 -96.09318 6210 ft 230 kts 217°
2026-04-29 16:13 33.16728 -96.10409 6210 ft 229 kts 217°
2026-04-29 16:13 33.15430 -96.11477 6221 ft 230 kts 217°
2026-04-29 16:13 33.14097 -96.12580 6216 ft 231 kts 217°
2026-04-29 16:14 33.12775 -96.13675 6204 ft 232 kts 217°
2026-04-29 16:14 33.11468 -96.14749 6207 ft 230 kts 217°
2026-04-29 16:14 33.10154 -96.15832 6214 ft 229 kts 217°
2026-04-29 16:14 33.08839 -96.16906 6218 ft 230 kts 216°
2026-04-29 16:15 33.07503 -96.17961 6209 ft 230 kts 216°
2026-04-29 16:15 33.06170 -96.19020 6209 ft 230 kts 216°
2026-04-29 16:15 33.04819 -96.20091 5992 ft 236 kts 216°
2026-04-29 16:15 33.03454 -96.21181 5668 ft 234 kts 216°
2026-04-29 16:16 33.02126 -96.22244 5360 ft 227 kts 216°
2026-04-29 16:16 33.00824 -96.23285 5048 ft 225 kts 216°
2026-04-29 16:16 32.99532 -96.24326 4903 ft 221 kts 216°
2026-04-29 16:16 32.98291 -96.25325 4908 ft 218 kts 216°
2026-04-29 16:17 32.97010 -96.26362 4927 ft 227 kts 216°
2026-04-29 16:17 32.95704 -96.27435 4906 ft 228 kts 217°
2026-04-29 16:17 32.94401 -96.28503 4895 ft 226 kts 216°
2026-04-29 16:17 32.93114 -96.29563 4887 ft 225 kts 216°
2026-04-29 16:18 32.91831 -96.30616 4889 ft 224 kts 216°
2026-04-29 16:18 32.90544 -96.31677 4886 ft 224 kts 216°
2026-04-29 16:18 32.89257 -96.32739 4892 ft 227 kts 216°
2026-04-29 16:18 32.87953 -96.33809 4891 ft 227 kts 216°
2026-04-29 16:19 32.86654 -96.34864 4887 ft 225 kts 216°
2026-04-29 16:19 32.85360 -96.35915 4894 ft 225 kts 216°
2026-04-29 16:19 32.84063 -96.36974 4888 ft 227 kts 216°
2026-04-29 16:19 32.82758 -96.38036 4902 ft 227 kts 216°
2026-04-29 16:20 32.81459 -96.39084 4896 ft 225 kts 216°
2026-04-29 16:20 32.80179 -96.40120 4899 ft 225 kts 216°
2026-04-29 16:20 32.78887 -96.41177 4903 ft 225 kts 216°
2026-04-29 16:20 32.77583 -96.42216 4900 ft 226 kts 215°
2026-04-29 16:21 32.76277 -96.43261 4906 ft 226 kts 215°
2026-04-29 16:21 32.74978 -96.44294 4902 ft 226 kts 216°
2026-04-29 16:21 32.73670 -96.45333 4904 ft 226 kts 216°
2026-04-29 16:21 32.72360 -96.46373 4903 ft 227 kts 216°
2026-04-29 16:22 32.71048 -96.47430 4900 ft 227 kts 217°
2026-04-29 16:22 32.69746 -96.48490 4904 ft 227 kts 217°
2026-04-29 16:22 32.68436 -96.49540 4911 ft 228 kts 217°
2026-04-29 16:22 32.67131 -96.50597 4902 ft 226 kts 216°
2026-04-29 16:23 32.65833 -96.51644 4902 ft 225 kts 216°
2026-04-29 16:23 32.64549 -96.52680 4903 ft 227 kts 216°
2026-04-29 16:23 32.63269 -96.53774 4879 ft 226 kts 226°
2026-04-29 16:23 32.62582 -96.55390 4782 ft 221 kts 265°
2026-04-29 16:24 32.62963 -96.57134 4908 ft 225 kts 293°
2026-04-29 16:24 32.63664 -96.58870 4912 ft 240 kts 294°
2026-04-29 16:24 32.64324 -96.60664 4865 ft 232 kts 293°
2026-04-29 16:24 32.64990 -96.62412 4847 ft 235 kts 295°
2026-04-29 16:25 32.65894 -96.64032 4562 ft 239 kts 314°
2026-04-29 16:25 32.67066 -96.65365 4424 ft 230 kts 315°
2026-04-29 16:25 32.68193 -96.66714 4332 ft 235 kts 315°
2026-04-29 16:25 32.69351 -96.68046 4204 ft 230 kts 315°
2026-04-29 16:26 32.70507 -96.69375 4086 ft 232 kts 315°
2026-04-29 16:26 32.71660 -96.70700 3985 ft 230 kts 315°
2026-04-29 16:26 32.72817 -96.72029 3888 ft 233 kts 315°
2026-04-29 16:26 32.73961 -96.73375 3550 ft 231 kts 314°
2026-04-29 16:27 32.75092 -96.74725 3208 ft 227 kts 315°
2026-04-29 16:27 32.76229 -96.76038 2751 ft 231 kts 316°
2026-04-29 16:27 32.77367 -96.77343 2096 ft 225 kts 315°
2026-04-29 16:27 32.78480 -96.78625 1697 ft 218 kts 315°
2026-04-29 16:28 32.79594 -96.79901 1747 ft 224 kts 315°
2026-04-29 16:28 32.80662 -96.81346 1353 ft 236 kts 309°
2026-04-29 16:28 32.81716 -96.82587 1040 ft 195 kts 319°
2026-04-29 16:28 32.82680 -96.83566 693 ft 171 kts 318°
2026-04-29 16:29 32.83489 -96.84460 506 ft 145 kts 316°
2026-04-29 16:29 32.84127 -96.85190 480 ft 84 kts 316°
2026-04-29 16:29 32.84336 -96.85338 474 ft 0 kts 344°
2026-04-29 16:29 32.84393 -96.85356 478 ft 16 kts 348°
2026-04-29 16:30 32.84503 -96.85347 481 ft 16 kts 18°
2026-04-29 16:30 32.84507 -96.85252 479 ft 12 kts 140°
2026-04-29 16:30 32.84488 -96.85170 483 ft 11 kts 56°
2026-04-29 16:30 32.84555 -96.85157 481 ft 5 kts
2026-04-29 16:31 32.84564 -96.85156 479 ft 0 kts